Chara, Russia
Current Conditions -  °F | °C
As of 10:00 PM on Saturday 20 Dec 2014 (Local Time) from UIAA Reporting Station
Broken Clouds Broken Clouds  
Wind Chill: -5°   Ceiling: 10000
Heat Index: 10°   Visibility: 6mi
Dew Point:   Wind: 13mph
Humidity: 73%   Direction: 220°SW
Pressure: 30"   Gusts: NA
Location:  56.91°N, 118.26°E
Report Text: UIAA 201300Z 22006MPS 9999 BKN100 M12/M16 Q1016 NOSIG RMKQFE703 29CLRD70
Loading
Personal Weather Stations






























Interactive Weather Map New forecast layout! Learn more

10-Day Weather Forecast

Advertisements
Track Severe Weather on mobile